Location: Gwatt
(46.7204°N, 7.6223°E)
Time: 01:17:48
(UTC+00:00)

Transit 2A - Pass Details

Date: 26 January 2021
Orbit: 601 x 958 km, 66.7° (Epoch: 07 March)

Event Time Altitude Azimuth Distance (km) Brightness Sun altitude
Rises 01:18:18 0° 160° (SSE) 3,506 - -55.7°
Reaches altitude 10° 01:21:59 10° 138° (SE) 2,507 - -55.3°
Maximum altitude 01:25:04 15° 106° (ESE) 2,123 - -54.9°
Drops below altitude 10° 01:28:02 10° 73° (ENE) 2,389 - -54.5°
Sets 01:31:24 0° 51° (NE) 3,244 - -54.1°
Exits shadow 01:31:35 -1° 50° (NE) 3,302 9.9 -54.1°
